Location: ??
(35.4032°N, 139.3073°E)
Time: 11:58:50
(UTC+00:00)

SJ 16-02 - Pass Details

Date: 13 April 2024
Orbit: 595 x 605 km, 75.0° (Epoch: 22 May)

Event Time Altitude Azimuth Distance (km) Brightness Sun altitude
Rises 12:17:00 0° 317° (NW) 2,842 5.8 -33.5°
Reaches altitude 10° 12:21:03 10° 279° (W) 1,931 4.4 -34.1°
Enters shadow 12:22:00 11° 266° (W) 1,885 4.2 -34.2°
